Weather History for CWSS - October, 2012

Change the Weather History Date:

Sunday, October 28, 2012

  Actual Average Record
Temperature  
Mean Temperature 46 °F -  
Max Temperature 57 °F - - ()
Min Temperature 35 °F - - ()
Degree Days  
Heating Degree Days 19    
Moisture  
Dew Point 44 °F    
Average Humidity 85    
Maximum Humidity 97    
Minimum Humidity 70    
Precipitation  
Precipitation 0.00 in - - ()
Sea Level Pressure  
Sea Level Pressure 30.09 in    
Wind  
Wind Speed 4 mph ()    
Max Wind Speed 13 mph    
Max Gust Speed 22 mph    
T = Trace of Precipitation, MM = Missing Value Source: Averaged Metar Reports

Daily Weather History Graph

Daily Weather History Graph

Search for Another Location

Airport or City:

Trip Planner

Search our weather history database for the weather conditions in past years. The results will help you decide how hot, cold, wet, or windy it might be!

Date:

Astronomy

Oct. 28, 2012 Rise Set
Actual Time 8:02 AM ADT 6:21 PM ADT
Civil Twilight 7:32 AM ADT 6:52 PM ADT
Nautical Twilight 6:57 AM ADT 7:26 PM ADT
Astronomical Twilight 6:23 AM ADT 8:01 PM ADT
Moon 5:37 PM ADT (10/28) 6:51 AM ADT (10/28)
Length of Visible Light 11h 19m
Length of Day
10h 18m
Waxing Gibbous, 99% of the Moon is Illuminated
Oct 28
Waxing Gibbous
Oct 29
Full
Nov 6
Last Quarter
Nov 13
New
Nov 20
First Quarter

Hourly Weather History & Observations

Time (ADT) Temp. Windchill Dew Point Humidity Pressure Visibility Wind Dir Wind Speed Gust Speed Precip Events Conditions
12:00 AM 41 °F - 37 °F 80% 30.12 in - SSE 1.2 mph - -  
12:00 AM 41.2 °F - 37.0 °F 85% 30.12 in - SSE 1.2 mph - N/A   Unknown
1:00 AM 39.6 °F - 36.5 °F 89% 30.12 in - NNE 1.2 mph - N/A   Unknown
2:00 AM 37.2 °F - 35.4 °F 93% 30.12 in - North 1.2 mph - N/A   Unknown
3:00 AM 35 °F - 34 °F 95% 30.13 in - Calm Calm - -  
3:00 AM 35.4 °F - 34.2 °F 95% 30.13 in - Calm Calm - N/A   Unknown
4:00 AM 42.3 °F 40.5 °F 41.4 °F 97% 30.12 in - ENE 3.5 mph - N/A   Unknown
5:00 AM 44.2 °F - 43.0 °F 95% 30.12 in - NE 2.3 mph - N/A   Unknown
6:00 AM 45 °F - 43 °F 92% 30.12 in - NE 2.3 mph - -  
6:00 AM 45.0 °F - 43.3 °F 94% 30.12 in - NE 2.3 mph - N/A   Unknown
7:00 AM 45.9 °F 44.6 °F 44.4 °F 95% 30.10 in - NE 3.5 mph - N/A   Unknown
8:00 AM 46.4 °F 43.5 °F 44.6 °F 93% 30.12 in - NE 5.8 mph - N/A   Unknown
9:00 AM 47 °F - 45 °F 88% 30.13 in - NNE 4.6 mph - -  
9:00 AM 46.8 °F - 44.6 °F 92% 30.13 in - NNE 4.6 mph - N/A   Unknown
10:00 AM 46.6 °F - 43.5 °F 89% 30.13 in - NNE 10.4 mph - N/A   Unknown
11:00 AM 48.2 °F - 43.9 °F 85% 30.13 in - NNE 9.2 mph - N/A   Unknown
12:00 PM 53 °F - 46 °F 70% 30.11 in - NE 6.9 mph - -  
12:00 PM 53.2 °F - 46.0 °F 77% 30.11 in - NE 6.9 mph - N/A   Unknown
1:00 PM 55.4 °F - 46.4 °F 72% 30.08 in - NNE 9.2 mph - N/A   Unknown
2:00 PM 55.2 °F - 46.4 °F 72% 30.08 in - NNE 9.2 mph - N/A   Unknown
3:00 PM 54 °F - 47 °F 70% 30.06 in - NE 9.2 mph - -  
3:00 PM 54.3 °F - 46.9 °F 76% 30.06 in - NE 9.2 mph - N/A   Unknown
4:00 PM 54.1 °F - 46.6 °F 76% 30.06 in - NE 12.7 mph 19.6 mph N/A   Unknown
5:00 PM 54.3 °F - 47.1 °F 77% 30.04 in - NE 10.4 mph 18.4 mph N/A   Unknown
6:00 PM 53 °F - 47 °F 74% 30.04 in - NE 12.7 mph - -  
6:00 PM 53.1 °F - 47.1 °F 80% 30.04 in - NE 12.7 mph 19.6 mph N/A   Unknown
7:00 PM 51.8 °F - 47.3 °F 85% 30.03 in - NE 10.4 mph 21.9 mph N/A   Unknown
8:00 PM 51.3 °F - 47.5 °F 87% 30.03 in - NE 10.4 mph - N/A   Unknown
9:00 PM 50 °F - 47 °F 86% 30.02 in - NE 5.8 mph - -  
9:00 PM 50.2 °F - 47.1 °F 89% 30.02 in - NE 5.8 mph - N/A   Unknown
10:00 PM 49.8 °F - 46.6 °F 89% 30.01 in - NE 6.9 mph - N/A   Unknown
11:00 PM 49.3 °F - 46.4 °F 90% 30.00 in - NE 5.8 mph - N/A   Unknown